Location: Newark
(49.8348°N, 24.0280°E)
Time: 20:15:10
(UTC+00:00)

S-56A Canister/Altair - Pass Details

Date: 27 January 2020
Orbit: 633 x 2499 km, 38.9° (Epoch: 22 February)

Event Time Altitude Azimuth Distance (km) Brightness Sun altitude
Rises 19:38:58 0° 246° (WSW) 3,860 11.6 -42.7°
Enters shadow 19:41:56 - 237° (WSW) 2,797 10.6 -43.2°
Reaches altitude 10° 19:42:26 10° 235° (SW) 2,623 - -43.3°
Maximum altitude 19:47:11 25° 182° (S) 1,499 - -43.9°
Drops below altitude 10° 19:51:04 10° 126° (SE) 2,104 - -44.5°
Sets 19:53:32 0° 112° (ESE) 2,943 - -44.8°
